SCP
0 0 0 -0 -0 0 0 -0 0 -0 0 -0 0 0 0 0 0 0 0 -0 0 0 0 0 0 0 1 1 1 1 1 0 1 1 0 0 0 0 0 0 0 0 0 0
0 -0 -0 -0 0 -0 0 -0 0 -0 0 0 0 0 -0 0 0 0 0 0 0 0 1 1 0 0 0 1 0 0 0 0 1 1 1 1 1 1 1 1 0 0 0 0
0 0 -0 0 0 0 0 -0 0 0 0 0 -0 0 0 0 0 0 -0 -0 -0 -0 -0 -0 -0 0 0 0 0 0 0 0 1 1 1 1 1 1 0 0 1 1 0 0
0 0 -0 0 0 0 -0 -0 -0 -0 -0 0 -0 -0 -0 0 0 0 -0 0 -0 0 0 0 0 -0 -0 -0 -0 0 1 1 1 0 0 1 1 0 1 1 1 0 1 1
0 0 0 0 0 0 0 0 -0 0 -0 -0 -0 -0 0 0 0 0 0 0 0 0 0 0 0 0 0 0 -0 0 0 0 0 0 1 1 1 0 0 0 0 0 0 0
0 0 0 0 0 0 0 0 -0 0 0 -0 -0 0 0 0 0 0 0 0 0 0 0 0 0 0 0 0 0 0 0 0 0 0 0 0 0 0 0 0 0 0 0 0
0 0 -0 -0 0 0 0 0 -0 0 0 0 0 0 0 0 0 0 0 0 0 0 0 0 0 0 0 0 0 0 0 0 0 0 0 0 0 0 0 0 0 0 0 0
-0 0 0 0 0 0 0 -0 0 0 0 0 0 0 0 0 0 0 0 0 0 0 0 0 0 0 0 0 0 0 0 0 0 0 0 0 0 0 0 0 0 0 0 0
0 0 0 0 0 0 0 0 0 0 0 0 0 0 0 0 0 0 0 0 0 0 0 0 0 0 0 0 0 0 0 0 0 0 0 0 0 0 0 0 0 0 0 0
0 0 0 0 0 0 0 0 0 0 0 0 0 0 0 0 0 0 0 0 0 0 0 0 0 0 0 0 0 0 0 0 0 0 0 0 0 0 0 0 0 0 0 0
0 0 0 0 -0 0 0 0 0 0 0 0 0 0 0 0 0 0 0 0 0 0 0 0 0 0 0 0 0 0 0 0 0 0 0 0 0 0 0 0 0 0 0 0
0 0 0 0 0 0 0 0 0 0 0 0 0 0 0 0 0 0 0 0 0 0 0 0 0 0 0 0 0 0 0 0 0 0 0 0 0 0 0 0 0 0 0 0
0 0 0 0 0 0 0 0 0 0 0 0 0 0 0 0 0 0 0 0 0 0 0 0 0 0 0 0 0 0 0 0 0 0 0 0 0 0 0 0 0 0 0 0
0 0 0 0 0 0 0 0 0 0 0 0 0 0 0 0 0 0 0 0 0 0 0 0 0 0 0 0 0 0 0 0 0 0 0 0 0 0 0 0 0 0 0 0
0 0 0 0 0 -0 0 0 0 0 0 -0 0 0 0 0 0 0 0 0 0 0 0 0 0 0 0 0 0 0 0 0 0 0 0 0 0 0 0 0 0 0 0 0
0 0 0 0 0 -0 -0 -0 -0 -0 -0 -0 -0 -0 -0 -0 -0 -0 -0 -0 0 0 0 0 0 0 0 0 0 0 0 0 0 0 0 0 0 0 0 0 0 0 0 0
0 0 0 0 0 -0 -0 -0 -0 -0 -0 -0 -0 -0 -0 -0 0 0 0 0 0 0 0 -0 -0 0 0 0 0 0 0 0 0 0 0 0 0 0 0 0 0 0 0 0
0 0 0 0 0 0 -0 -0 -0 -0 -0 -0 -0 -0 -0 0 0 0 0 0 0 0 0 0 0 0 0 0 0 0 0 0 0 0 0 0 0 0 0 0 0 0 0 0
0 0 0 0 0 0 0 -0 -0 -0 0 0 0 0 0 0 0 0 0 0 0 0 0 0 0 0 0 0 0 0 0 0 0 0 0 0 0 0 0 0 0 0 0 0
0 0 0 0 0 0 0 0 0 0 0 0 0 0 0 0 0 0 0 0 0 0 0 0 0 0 0 0 0 0 0 0 0 0 0 0 0 0 0 0 0 0 0 0
0 0 0 0 0 0 0 0 0 0 0 0 0 0 0 0 0 0 0 0 0 0 0 0 0 0 0 0 0 0 0 0 0 0 0 0 0 0 0 0 0 0 0 0
0 0 0 0 0 0 0 0 0 0 0 0 0 0 0 0 0 0 0 0 0 0 0 0 0 0 0 0 0 0 0 0 0 0 0 0 0 0 0 0 0 0 0 0
0 0 0 0 0 0 0 0 0 0 0 0 0 0 0 0 0 0 0 0 0 0 0 0 0 0 0 0 0 0 0 0 0 0 0 0 0 0 0 0 0 0 0 0
0 0 0 0 0 0 0 0 0 0 0 1 1 1 0 0 0 0 0 0 0 0 0 0 0 0 0 0 0 0 0 0 0 0 0 0 0 0 0 0 0 0 0 0
0 0 0 0 0 0 0 0 0 1 1 1 1 0 0 0 0 0 0 0 0 0 0 0 0 0 0 0 0 0 0 0 0 0 0 0 0 0 0 0 0 0 0 0
0 0 0 0 0 0 0 0 0 0 0 0 0 0 0 0 0 0 0 0 0 0 0 0 0 0 0 0 0 0 0 0 0 0 0 0 0 0 0 0 0 0 0 0
0 0 0 0 0 0 0 0 0 0 0 0 0 0 0 0 0 0 0 0 0 0 0 0 0 0 0 0 0 0 0 0 0 0 0 0 0 0 0 0 0 0 0 0
Wind_Speed_500mb
11 22 16 54 50 9 7 11 30 37 21 21 18 17 12 11 10 5 18 33 36 28 26 30 38 44 40 37 36 39 38 34 32 29 31 27 28 24 27 24 23 27 27 23
39 46 53 21 6 21 9 43 20 40 28 25 27 27 19 18 23 24 24 19 29 32 31 16 13 32 31 31 26 41 47 43 27 26 31 30 29 29 24 19 20 21 21 23
21 25 44 26 2 16 5 43 38 24 27 32 30 28 13 16 25 32 27 25 24 16 19 30 38 28 23 40 45 50 47 35 38 25 23 27 29 31 34 34 25 17 24 21
14 27 12 7 5 28 25 42 22 28 31 31 31 26 18 15 20 28 37 28 24 19 23 19 11 8 11 27 30 27 30 33 31 40 34 41 38 39 42 41 41 35 31 23
17 22 25 4 10 6 3 24 47 22 27 36 35 31 20 15 17 21 22 24 24 24 24 21 18 18 19 15 15 15 12 20 26 22 19 16 21 27 28 30 29 33 36 34
16 9 10 11 22 1 10 21 76 28 28 32 35 13 17 22 19 19 17 19 21 23 21 24 19 11 13 16 15 11 15 14 14 14 16 18 15 12 15 20 24 28 35 24
8 8 7 23 38 15 16 3 64 19 24 25 14 23 39 25 20 16 16 19 17 22 22 21 23 17 18 17 15 13 12 13 13 11 9 8 7 9 11 10 15 11 17 19
10 8 3 14 7 11 12 31 40 12 11 28 27 31 29 24 20 17 17 16 16 18 17 17 18 14 18 19 20 16 12 14 14 13 10 7 3 4 8 9 7 9 9 14
15 9 7 10 15 7 7 10 11 15 12 17 26 29 27 25 19 15 17 16 16 17 17 16 17 15 13 17 18 17 16 12 9 6 7 7 8 7 6 7 9 8 5 9
8 12 7 12 9 8 3 8 7 11 14 19 19 24 25 24 21 20 20 21 18 15 13 14 15 14 16 18 17 15 14 13 11 10 10 13 13 12 13 19 16 14 10 7
12 9 7 11 14 11 6 3 3 7 13 15 20 20 19 19 17 16 16 16 18 17 14 15 17 15 14 14 16 15 17 17 17 16 15 13 13 12 15 12 14 11 10 7
4 20 17 1 20 16 14 11 10 12 13 12 18 21 23 21 17 19 20 19 18 18 17 17 18 17 11 13 15 15 12 12 12 10 9 8 8 7 7 5 4 6 7 7
14 5 16 6 7 19 18 15 14 16 19 19 19 21 20 19 19 22 19 18 14 15 17 17 17 17 17 16 15 16 14 14 11 11 11 11 10 11 11 13 12 11 8 5
19 17 13 16 16 19 17 15 14 18 20 22 23 21 21 21 22 18 17 19 19 18 15 15 16 17 19 19 19 18 17 21 11 9 9 9 10 10 9 7 5 2 3 4
26 29 18 22 19 24 20 19 20 27 25 25 24 24 23 25 25 23 21 19 21 21 20 19 21 21 20 17 15 13 10 8 9 7 7 8 8 7 7 9 9 8 8 9
30 32 26 23 25 27 27 25 26 28 29 28 27 23 24 24 23 22 22 22 22 21 23 22 21 21 19 17 15 11 10 12 11 3 4 7 7 7 6 4 4 4 5 5
36 37 33 30 32 32 32 31 31 32 30 31 28 27 28 26 24 21 20 20 18 21 22 23 22 23 20 16 13 7 4 3 8 7 6 7 7 6 6 5 4 5 7 12
35 35 35 33 33 32 33 32 33 33 34 33 31 32 29 27 24 22 20 20 18 18 20 21 23 23 23 19 15 10 8 9 7 8 11 12 12 13 13 13 13 12 12 18
33 36 36 33 32 30 30 33 34 33 34 34 35 34 30 28 25 24 22 19 17 19 20 21 22 20 20 23 21 15 15 15 15 15 16 18 17 18 18 18 18 17 17 19
35 38 37 35 30 32 32 33 33 35 35 36 35 32 31 28 25 24 21 17 13 11 22 22 22 18 19 20 19 19 20 21 20 17 23 22 22 23 23 23 23 20 21 22
40 40 41 38 32 33 32 34 37 38 37 37 36 32 31 29 27 23 20 18 22 19 17 22 18 16 19 22 22 16 20 24 26 30 29 29 28 29 29 26 24 24 25 21
43 44 44 41 35 35 34 36 36 37 38 36 35 31 31 29 25 21 18 7 20 23 16 15 16 22 16 18 18 19 20 20 21 21 24 24 26 28 26 26 26 26 24 26
44 43 44 42 37 36 34 37 40 38 37 37 37 34 33 27 24 24 22 20 17 20 16 16 21 26 28 22 19 21 18 18 21 24 24 27 28 31 27 28 30 30 29 34
43 41 42 39 36 36 37 36 38 37 35 34 34 35 33 29 23 19 12 28 28 24 15 22 25 30 32 20 19 21 17 21 22 24 23 19 17 21 26 26 26 28 35 36
39 39 39 39 39 38 36 37 37 36 37 36 37 36 31 23 21 24 17 18 27 19 18 23 25 21 18 16 21 18 21 19 20 17 18 13 14 14 14 16 15 18 22 25
39 40 38 38 34 34 36 40 41 39 40 38 35 32 28 25 21 17 15 17 12 14 20 9 12 12 12 15 17 19 20 16 16 17 20 15 16 13 11 13 11 16 19 23
34 33 33 34 33 33 36 39 39 38 39 34 34 32 31 26 21 18 17 13 16 13 16 15 13 16 11 9 9 9 10 12 16 15 11 15 17 18 20 21 20 19 18 17
Wind_Direction_500mb
149 214 128 275 268 107 38 266 245 255 105 140 102 83 44 15 72 123 176 178 168 193 206 203 218 208 227 226 222 220 230 238 201 219 227 219 220 225 240 243 247 246 246 241
175 216 224 174 56 126 326 289 113 271 100 111 99 87 41 42 54 56 55 162 174 171 190 227 244 214 223 225 242 254 242 235 228 241 236 242 238 234 236 245 250 255 245 243
294 30 328 258 172 81 335 337 311 198 141 141 121 106 90 82 71 73 70 72 121 126 166 197 210 206 203 227 239 236 246 263 232 268 237 236 248 259 256 260 251 251 257 243
159 89 302 11 335 131 146 217 263 92 128 117 111 114 101 88 97 89 88 85 100 147 161 163 150 244 231 230 230 234 235 241 246 256 251 236 232 242 250 262 253 236 242 230
286 214 191 4 181 165 254 329 304 107 106 115 123 121 104 107 99 85 81 92 88 78 109 161 180 176 164 177 190 212 225 221 224 222 202 234 216 234 238 242 238 234 231 219
304 348 346 30 309 9 305 157 250 131 138 141 155 161 122 131 120 110 109 101 97 101 101 99 91 120 200 192 198 195 181 186 201 207 223 234 243 248 250 249 244 253 238 236
291 286 201 211 244 279 237 12 344 115 139 150 117 101 130 132 120 109 100 91 89 108 112 114 126 120 120 127 133 138 150 157 148 142 140 150 187 230 250 268 246 272 261 244
224 283 152 126 163 297 55 149 156 104 116 84 112 119 126 129 122 115 105 93 92 106 116 113 114 117 117 116 112 112 138 138 135 137 121 116 138 196 238 240 243 284 292 272
350 45 83 82 70 89 33 82 80 100 104 130 132 132 133 130 124 119 123 107 93 108 113 119 120 121 120 115 116 125 128 134 137 120 99 117 129 121 120 88 64 67 70 53
303 179 193 144 133 142 78 90 115 132 137 147 136 137 135 133 132 132 142 145 129 130 128 125 120 120 126 126 126 133 137 138 138 129 119 111 111 107 117 104 83 50 63 103
234 185 178 199 193 184 167 152 168 140 158 164 148 156 146 138 138 132 141 141 144 138 131 124 120 117 117 121 121 124 125 126 122 120 115 114 110 111 117 122 128 110 119 111
21 159 203 249 197 194 198 201 194 181 170 168 164 156 152 151 154 155 155 153 150 144 138 134 123 115 117 122 124 116 111 127 132 127 124 127 106 110 101 96 76 86 86 90
260 233 198 216 207 197 198 199 190 197 188 172 160 156 150 151 154 167 161 157 151 150 150 144 132 127 128 132 131 129 135 122 125 118 120 98 92 86 92 96 98 92 93 88
225 211 190 203 212 200 197 200 187 196 185 178 162 157 150 149 153 150 158 158 155 150 143 140 139 141 136 132 131 130 138 131 119 117 125 134 132 131 127 120 101 21 144 124
207 204 217 201 208 188 191 187 189 192 178 170 173 165 159 155 154 156 161 163 157 155 156 158 157 148 143 138 132 123 110 125 125 119 129 134 125 119 121 126 137 141 106 124
206 210 208 197 193 188 192 188 187 184 180 177 180 173 162 155 155 157 162 170 168 169 167 165 170 169 157 155 142 143 168 169 145 150 109 129 133 146 148 147 148 153 161 185
203 209 204 205 195 195 197 195 197 190 187 186 182 176 166 161 160 163 170 178 177 180 178 175 175 188 182 172 157 166 183 223 183 176 216 219 227 223 224 230 238 236 211 204
218 210 209 204 195 195 197 200 199 198 190 187 180 181 174 171 171 172 177 183 182 179 186 187 186 195 195 199 195 204 220 240 261 251 238 245 244 240 242 243 243 243 228 240
206 198 195 194 194 192 191 191 192 191 184 182 181 184 183 182 182 181 180 182 190 198 205 196 201 195 205 209 209 222 235 245 246 232 247 251 261 250 247 250 252 248 244 235
198 192 189 187 188 187 185 186 186 181 182 184 185 186 188 189 188 189 183 190 202 233 196 199 219 211 212 232 236 231 245 254 256 246 253 254 257 254 254 253 248 250 249 245
196 191 187 183 185 185 185 184 186 185 184 186 191 190 189 191 194 185 191 219 208 224 213 228 214 230 236 236 262 251 253 256 253 260 256 248 256 252 255 254 252 249 248 247
193 191 187 186 185 186 188 188 187 187 187 192 192 191 191 192 191 193 209 238 190 209 205 219 226 216 222 220 250 260 259 260 262 260 257 255 253 251 259 248 249 252 253 250
196 194 191 189 188 187 187 190 191 192 193 194 193 195 192 197 206 211 219 212 202 202 198 237 232 228 238 252 253 254 248 260 260 265 261 257 252 252 253 251 253 253 244 230
194 188 190 190 189 186 187 188 191 193 194 191 190 189 187 192 196 196 181 193 198 211 223 230 245 248 253 242 241 237 247 262 266 268 266 260 260 258 254 258 254 256 254 259
186 184 183 185 187 190 189 186 184 185 183 180 177 178 183 197 212 200 203 217 225 236 224 238 242 242 235 221 235 247 254 265 255 264 261 250 261 251 249 245 262 243 252 259
182 182 184 184 185 187 185 182 184 185 182 180 181 181 185 187 188 183 195 208 214 198 197 243 201 193 207 237 236 249 248 249 255 262 251 272 270 273 265 244 255 273 259 258
184 184 184 182 184 182 182 184 185 188 190 190 187 185 182 183 187 187 198 207 200 201 200 191 207 222 228 230 210 225 232 241 246 254 251 256 265 265 261 266 273 259 265 267
Wind_Speed_850mb
11 22 16 54 50 9 7 11 30 37 21 21 18 17 12 11 10 5 18 33 36 28 26 30 38 44 40 37 36 39 38 34 32 29 31 27 28 24 27 24 23 27 27 23
39 46 53 21 6 21 9 43 20 40 28 25 27 27 19 18 23 24 24 19 29 32 31 16 13 32 31 31 26 41 47 43 27 26 31 30 29 29 24 19 20 21 21 23
21 25 44 26 2 16 5 43 38 24 27 32 30 28 13 16 25 32 27 25 24 16 19 30 38 28 23 40 45 50 47 35 38 25 23 27 29 31 34 34 25 17 24 21
14 27 12 7 5 28 25 42 22 28 31 31 31 26 18 15 20 28 37 28 24 19 23 19 11 8 11 27 30 27 30 33 31 40 34 41 38 39 42 41 41 35 31 23
17 22 25 4 10 6 3 24 47 22 27 36 35 31 20 15 17 21 22 24 24 24 24 21 18 18 19 15 15 15 12 20 26 22 19 16 21 27 28 30 29 33 36 34
16 9 10 11 22 1 10 21 76 28 28 32 35 13 17 22 19 19 17 19 21 23 21 24 19 11 13 16 15 11 15 14 14 14 16 18 15 12 15 20 24 28 35 24
8 8 7 23 38 15 16 3 64 19 24 25 14 23 39 25 20 16 16 19 17 22 22 21 23 17 18 17 15 13 12 13 13 11 9 8 7 9 11 10 15 11 17 19
10 8 3 14 7 11 12 31 40 12 11 28 27 31 29 24 20 17 17 16 16 18 17 17 18 14 18 19 20 16 12 14 14 13 10 7 3 4 8 9 7 9 9 14
15 9 7 10 15 7 7 10 11 15 12 17 26 29 27 25 19 15 17 16 16 17 17 16 17 15 13 17 18 17 16 12 9 6 7 7 8 7 6 7 9 8 5 9
8 12 7 12 9 8 3 8 7 11 14 19 19 24 25 24 21 20 20 21 18 15 13 14 15 14 16 18 17 15 14 13 11 10 10 13 13 12 13 19 16 14 10 7
12 9 7 11 14 11 6 3 3 7 13 15 20 20 19 19 17 16 16 16 18 17 14 15 17 15 14 14 16 15 17 17 17 16 15 13 13 12 15 12 14 11 10 7
4 20 17 1 20 16 14 11 10 12 13 12 18 21 23 21 17 19 20 19 18 18 17 17 18 17 11 13 15 15 12 12 12 10 9 8 8 7 7 5 4 6 7 7
14 5 16 6 7 19 18 15 14 16 19 19 19 21 20 19 19 22 19 18 14 15 17 17 17 17 17 16 15 16 14 14 11 11 11 11 10 11 11 13 12 11 8 5
19 17 13 16 16 19 17 15 14 18 20 22 23 21 21 21 22 18 17 19 19 18 15 15 16 17 19 19 19 18 17 21 11 9 9 9 10 10 9 7 5 2 3 4
26 29 18 22 19 24 20 19 20 27 25 25 24 24 23 25 25 23 21 19 21 21 20 19 21 21 20 17 15 13 10 8 9 7 7 8 8 7 7 9 9 8 8 9
30 32 26 23 25 27 27 25 26 28 29 28 27 23 24 24 23 22 22 22 22 21 23 22 21 21 19 17 15 11 10 12 11 3 4 7 7 7 6 4 4 4 5 5
36 37 33 30 32 32 32 31 31 32 30 31 28 27 28 26 24 21 20 20 18 21 22 23 22 23 20 16 13 7 4 3 8 7 6 7 7 6 6 5 4 5 7 12
35 35 35 33 33 32 33 32 33 33 34 33 31 32 29 27 24 22 20 20 18 18 20 21 23 23 23 19 15 10 8 9 7 8 11 12 12 13 13 13 13 12 12 18
33 36 36 33 32 30 30 33 34 33 34 34 35 34 30 28 25 24 22 19 17 19 20 21 22 20 20 23 21 15 15 15 15 15 16 18 17 18 18 18 18 17 17 19
35 38 37 35 30 32 32 33 33 35 35 36 35 32 31 28 25 24 21 17 13 11 22 22 22 18 19 20 19 19 20 21 20 17 23 22 22 23 23 23 23 20 21 22
40 40 41 38 32 33 32 34 37 38 37 37 36 32 31 29 27 23 20 18 22 19 17 22 18 16 19 22 22 16 20 24 26 30 29 29 28 29 29 26 24 24 25 21
43 44 44 41 35 35 34 36 36 37 38 36 35 31 31 29 25 21 18 7 20 23 16 15 16 22 16 18 18 19 20 20 21 21 24 24 26 28 26 26 26 26 24 26
44 43 44 42 37 36 34 37 40 38 37 37 37 34 33 27 24 24 22 20 17 20 16 16 21 26 28 22 19 21 18 18 21 24 24 27 28 31 27 28 30 30 29 34
43 41 42 39 36 36 37 36 38 37 35 34 34 35 33 29 23 19 12 28 28 24 15 22 25 30 32 20 19 21 17 21 22 24 23 19 17 21 26 26 26 28 35 36
39 39 39 39 39 38 36 37 37 36 37 36 37 36 31 23 21 24 17 18 27 19 18 23 25 21 18 16 21 18 21 19 20 17 18 13 14 14 14 16 15 18 22 25
39 40 38 38 34 34 36 40 41 39 40 38 35 32 28 25 21 17 15 17 12 14 20 9 12 12 12 15 17 19 20 16 16 17 20 15 16 13 11 13 11 16 19 23
34 33 33 34 33 33 36 39 39 38 39 34 34 32 31 26 21 18 17 13 16 13 16 15 13 16 11 9 9 9 10 12 16 15 11 15 17 18 20 21 20 19 18 17
Wind_Direction_850mb
149 214 128 275 268 107 38 266 245 255 105 140 102 83 44 15 72 123 176 178 168 193 206 203 218 208 227 226 222 220 230 238 201 219 227 219 220 225 240 243 247 246 246 241
175 216 224 174 56 126 326 289 113 271 100 111 99 87 41 42 54 56 55 162 174 171 190 227 244 214 223 225 242 254 242 235 228 241 236 242 238 234 236 245 250 255 245 243
294 30 328 258 172 81 335 337 311 198 141 141 121 106 90 82 71 73 70 72 121 126 166 197 210 206 203 227 239 236 246 263 232 268 237 236 248 259 256 260 251 251 257 243
159 89 302 11 335 131 146 217 263 92 128 117 111 114 101 88 97 89 88 85 100 147 161 163 150 244 231 230 230 234 235 241 246 256 251 236 232 242 250 262 253 236 242 230
286 214 191 4 181 165 254 329 304 107 106 115 123 121 104 107 99 85 81 92 88 78 109 161 180 176 164 177 190 212 225 221 224 222 202 234 216 234 238 242 238 234 231 219
304 348 346 30 309 9 305 157 250 131 138 141 155 161 122 131 120 110 109 101 97 101 101 99 91 120 200 192 198 195 181 186 201 207 223 234 243 248 250 249 244 253 238 236
291 286 201 211 244 279 237 12 344 115 139 150 117 101 130 132 120 109 100 91 89 108 112 114 126 120 120 127 133 138 150 157 148 142 140 150 187 230 250 268 246 272 261 244
224 283 152 126 163 297 55 149 156 104 116 84 112 119 126 129 122 115 105 93 92 106 116 113 114 117 117 116 112 112 138 138 135 137 121 116 138 196 238 240 243 284 292 272
350 45 83 82 70 89 33 82 80 100 104 130 132 132 133 130 124 119 123 107 93 108 113 119 120 121 120 115 116 125 128 134 137 120 99 117 129 121 120 88 64 67 70 53
303 179 193 144 133 142 78 90 115 132 137 147 136 137 135 133 132 132 142 145 129 130 128 125 120 120 126 126 126 133 137 138 138 129 119 111 111 107 117 104 83 50 63 103
234 185 178 199 193 184 167 152 168 140 158 164 148 156 146 138 138 132 141 141 144 138 131 124 120 117 117 121 121 124 125 126 122 120 115 114 110 111 117 122 128 110 119 111
21 159 203 249 197 194 198 201 194 181 170 168 164 156 152 151 154 155 155 153 150 144 138 134 123 115 117 122 124 116 111 127 132 127 124 127 106 110 101 96 76 86 86 90
260 233 198 216 207 197 198 199 190 197 188 172 160 156 150 151 154 167 161 157 151 150 150 144 132 127 128 132 131 129 135 122 125 118 120 98 92 86 92 96 98 92 93 88
225 211 190 203 212 200 197 200 187 196 185 178 162 157 150 149 153 150 158 158 155 150 143 140 139 141 136 132 131 130 138 131 119 117 125 134 132 131 127 120 101 21 144 124
207 204 217 201 208 188 191 187 189 192 178 170 173 165 159 155 154 156 161 163 157 155 156 158 157 148 143 138 132 123 110 125 125 119 129 134 125 119 121 126 137 141 106 124
206 210 208 197 193 188 192 188 187 184 180 177 180 173 162 155 155 157 162 170 168 169 167 165 170 169 157 155 142 143 168 169 145 150 109 129 133 146 148 147 148 153 161 185
203 209 204 205 195 195 197 195 197 190 187 186 182 176 166 161 160 163 170 178 177 180 178 175 175 188 182 172 157 166 183 223 183 176 216 219 227 223 224 230 238 236 211 204
218 210 209 204 195 195 197 200 199 198 190 187 180 181 174 171 171 172 177 183 182 179 186 187 186 195 195 199 195 204 220 240 261 251 238 245 244 240 242 243 243 243 228 240
206 198 195 194 194 192 191 191 192 191 184 182 181 184 183 182 182 181 180 182 190 198 205 196 201 195 205 209 209 222 235 245 246 232 247 251 261 250 247 250 252 248 244 235
198 192 189 187 188 187 185 186 186 181 182 184 185 186 188 189 188 189 183 190 202 233 196 199 219 211 212 232 236 231 245 254 256 246 253 254 257 254 254 253 248 250 249 245
196 191 187 183 185 185 185 184 186 185 184 186 191 190 189 191 194 185 191 219 208 224 213 228 214 230 236 236 262 251 253 256 253 260 256 248 256 252 255 254 252 249 248 247
193 191 187 186 185 186 188 188 187 187 187 192 192 191 191 192 191 193 209 238 190 209 205 219 226 216 222 220 250 260 259 260 262 260 257 255 253 251 259 248 249 252 253 250
196 194 191 189 188 187 187 190 191 192 193 194 193 195 192 197 206 211 219 212 202 202 198 237 232 228 238 252 253 254 248 260 260 265 261 257 252 252 253 251 253 253 244 230
194 188 190 190 189 186 187 188 191 193 194 191 190 189 187 192 196 196 181 193 198 211 223 230 245 248 253 242 241 237 247 262 266 268 266 260 260 258 254 258 254 256 254 259
186 184 183 185 187 190 189 186 184 185 183 180 177 178 183 197 212 200 203 217 225 236 224 238 242 242 235 221 235 247 254 265 255 264 261 250 261 251 249 245 262 243 252 259
182 182 184 184 185 187 185 182 184 185 182 180 181 181 185 187 188 183 195 208 214 198 197 243 201 193 207 237 236 249 248 249 255 262 251 272 270 273 265 244 255 273 259 258
184 184 184 182 184 182 182 184 185 188 190 190 187 185 182 183 187 187 198 207 200 201 200 191 207 222 228 230 210 225 232 241 246 254 251 256 265 265 261 266 273 259 265 267